{"data":{"norad_id":63118,"epoch":"2026-09-21T07:01:54.386112Z","epoch_age_seconds":93761,"freshness":"FRESH","line1":"1 63118U 25039Q   26264.29299058  .00009513  00000+0  35466-3 0  9996","line2":"2 63118  43.0024 347.9509 0001225 238.7875 121.2857 15.27590626 87982","mean_motion":15.27590626,"eccentricity":0.0001225,"inclination_deg":43.0024,"raan_deg":347.9509,"arg_perigee_deg":238.7875,"mean_anomaly_deg":121.2857,"bstar":0.00035466,"rev_number":8798,"period_min":94.266092989235,"perigee_km":482.17678675834,"apogee_km":483.85776955648,"semimajor_km":6861.1542781574,"source":"CELESTRAK","updated_at":"2026-09-22T09:00:49.765228Z"}}